Regional Weather Roundup
Issued by NWS

Home | Current Version | Previous Version | Text Only | Print | Product List | Glossary Off
Versions: 1 2 3 4 5 6 7 8 9 10 11 12 13 14 15 16 17 18 19 20 21 22 23 24 25 26 27 28 29 30 31 32 33 34 35 36 37 38 39 40 41 42 43 44 45 46 47 48 49 50

000
ASUS43 KFSD 290610
RWRSD

WEATHER ROUNDUP FOR SOUTH DAKOTA
NATIONAL WEATHER SERVICE SIOUX FALLS SD
100 AM CDT FRI JUL 29 2016

NOTE: "FAIR" INDICATES FEW OR NO CLOUDS BELOW 12,000 FEET WITH NO
SIGNIFICANT WEATHER AND/OR OBSTRUCTIONS TO VISIBILITY.


SDZ001>005-009-010-012>017-290700-
NORTHWEST AND NORTH CENTRAL SOUTH DAKOTA

CITY           SKY/WX    TMP DP  RH WIND       PRES   REMARKS
BUFFALO          N/A     60  60 100 E7        30.11R
FAITH            N/A     61  59  93 CALM      30.15S
MOBRIDGE       CLOUDY    68  59  73 N3        30.09S
$$

SDZ012>016-024>037-041>051-057-063-072>074-290700-
SOUTHWEST AND SOUTH CENTRAL SOUTH DAKOTA

CITY           SKY/WX    TMP DP  RH WIND       PRES   REMARKS
RAPID CTY ARPT PTCLDY    56  56 100 CALM      30.17S
PIERRE         MOCLDY    64  63  96 W6        30.09S
CUSTER         CLOUDY    55  53  93 CALM      30.27S
PHILIP         CLOUDY    61  61 100 W3        30.13S
PINE RIDGE     MOCLDY    60  59  96 E6        30.17R
WINNER         CLOUDY    63  60  90 SW3       30.11S
$$

SDZ004>011-016>023-039-040-290700-
NORTHEAST SOUTH DAKOTA

CITY           SKY/WX    TMP DP  RH WIND       PRES   REMARKS
ABERDEEN       CLOUDY    66  59  78 S5        30.09S
WATERTOWN      LGT RAIN  65  59  81 CALM      30.11R
BROOKINGS      PTCLDY    59  55  87 CALM      30.10S
SISSETON         N/A     66  63  90 CALM      30.08R
$$

SDZ017-020-022-023-036>040-048>070-290700-
SOUTHEAST SOUTH DAKOTA

CITY           SKY/WX    TMP DP  RH WIND       PRES   REMARKS
SIOUX FALLS    PTCLDY    60  55  83 NE3       30.09S
HURON          CLOUDY    65  58  78 E6        30.09R
CHAMBERLAIN    CLOUDY    69  66  91 CALM      30.10S
MITCHELL       CLOUDY    65  59  81 E5        30.09S
YANKTON        MOCLDY    64  57  77 NE5       30.07S
$$

ABBREVIATIONS USED IN REMARKS
   TC - TEMPERATURE IN CELSIUS
  WCI - WIND CHILL INDEX
   HX - HEAT INDEX
  VSB - VISIBILITY




USA.gov is the U.S. government's official web portal to all federal, state and local government web resources and services.